Miscellaneous Local Product
Issued by NWS North Platte, NE

Home | Current Version | Previous Version | Text Only | Print | Product List | Glossary On
Versions: 1 2 3 4 5 6 7 8 9 10 11 12 13 14 15 16 17 18 19 20 21 22 23 24 25 26 27 28 29 30 31 32 33 34 35 36 37 38 39 40 41 42 43 44 45 46 47 48 49 50
000
AXUS43 KLBF 250910
MISLBF


WESTERN AND NORTH CENTRAL NEBRASKA HOURLY WEATHER ROUNDUP
NATIONAL WEATHER SERVICE NORTH PLATTE NE
400 AM CDT SAT MAR 25 2017

NOTE: "FAIR" INDICATES FEW OR NO CLOUDS BELOW 12,000 FEET WITH NO
SIGNIFICANT WEATHER AND/OR OBSTRUCTIONS TO VISIBILITY.

NOTE: STATIONS NOT REPORTING VARIABLES SUCH AS SKY/WEATHER OR
PRESSURE ARE PROVIDED BY RAWS AND APRS NETWORKS AND ARE NOT UNDER
NATIONAL WEATHER SERVICE QUALITY CONTROL.

...OBSERVATIONS IN AND NEAR THE EASTERN PANHANDLE OF NEBRASKA...

CITY           SKY/WX    TMP DP  RH WIND       PRES   REMARKS
PINE RIDGE     CLOUDY    39  30  70 S9        30.03F WCI  33
CHADRON        CLOUDY    39  29  67 S3        30.02F
ALLIANCE       CLOUDY    23  20  88 CALM      30.05F
SIDNEY         CLOUDY    24  22  91 NW8       30.07F WCI  15
CRESCENT LAKE    N/A     50  28  43 W5          N/A
$$

...OBSERVATIONS IN NORTHERN NEBRASKA AND FAR SOUTHERN SOUTH DAKOTA...

CITY           SKY/WX    TMP DP  RH WIND       PRES   REMARKS
WINNER         SNOW      32  30  92 E6        30.10S VSB 1/4 WCI  26
VALENTINE      CLOUDY    25  21  85 SW5       30.07F WCI  19
THEDFORD       CLOUDY    29  26  88 NW5       30.07S WCI  24
AINSWORTH      CLOUDY    28  27  99 N5        30.08S WCI  22
O`NEILL        CLOUDY    36  35  98 N12       30.07F FOG     WCI  27
ORD            CLOUDY    37  34  89 N15       30.04S FOG     WCI  28
BROKEN BOW     CLOUDY    35  33  92 N14       30.04F WCI  26
VALENTINE NWR    N/A     33  28  83 CALM        N/A
HALSEY           N/A     30  28  92 CALM        N/A
BUTTE            N/A     34  32  93 NE7         N/A  WCI  28
CHAMBERS         N/A     36  35  98 N3          N/A
EWING            N/A     35  34  97 N3          N/A
$$

...OBSERVATIONS IN SOUTHWEST NEBRASKA AND FAR NORTHEAST COLORADO...

CITY           SKY/WX    TMP DP  RH WIND       PRES   REMARKS
WRAY           FAIR      32  32 100 W6        30.09R WCI  26
HOLYOKE        FAIR      34  30  86 W7        30.08S WCI  28
IMPERIAL       CLEAR     33  28  81 VRB3      30.06S
OGALLALA       CLOUDY    32  29  88 E3        30.06F
NORTH PLATTE   CLEAR     32  27  81 SW3       30.06S
MCCOOK         CLEAR     36  34  92 N9        30.04F WCI  29
LEXINGTON      CLOUDY    37  34  89 N8        30.04F WCI  31
STAPLETON        N/A     31  28  89 CALM        N/A
GOTHENBURG       N/A     37  32  83 NW3         N/A
CALLAWAY         N/A     33  30  90 N7          N/A  WCI  27
$$

...OBSERVATIONS IN CENTRAL LINCOLN COUNTY AREA...

CITY           SKY/WX    TMP DP  RH WIND       PRES   REMARKS
N.P. AIRPORT   CLEAR     32  27  81 SW3       30.06S
N.P. DOWNTOWN    N/A     34  29  82 CALM        N/A
N.P. SOUTHEAST   N/A     33  29  85 CALM        N/A
N.P. HILLCREST   N/A     32  29  88 CALM        N/A
$$

...SOME OBSERVATIONS FROM AROUND THE REGION...

CITY           SKY/WX    TMP DP  RH WIND       PRES   REMARKS
DENVER         CLOUDY    33  27  78 S6        30.08S WCI  28
LIMON          CLEAR     28  26  92 NW7       30.09F WCI  21
ASPEN          CLOUDY    30  23  75 SW7       30.21R WCI  23
LARAMIE        CLOUDY    27  19  72 S7        30.07S WCI  19
GILLETTE       CLOUDY    42  29  59 S20       29.86S
CHEYENNE       CLOUDY    30  23  75 W8        30.06F WCI  22
SCOTTSBLUFF    CLOUDY    32  26  78 E8        30.05F WCI  25
GRAND ISLAND   CLOUDY    37  37 100 N15       30.01R FOG     WCI  28
OMAHA          LGT RAIN  42  37  82 N17       29.93R
SIOUX FALLS    CLOUDY    35  34  96 NE14      30.10S FOG     WCI  26
PIERRE         CLOUDY    27  25  92 SE5       30.07F WCI  22
RAPID CITY     PTCLDY    39  29  67 S14       29.99F WCI  31
BISMARCK       CLOUDY    31  29  92 SE8       30.10F WCI  23
KANSAS CITY    CLOUDY    52  52 100 NW6       29.75F FOG
HILL CITY      CLOUDY    42  41  96 N10       30.02F
WICHITA        LGT RAIN  43  42  97 NW21G30   29.85F
DODGE CITY     CLOUDY    41  39  93 N14G24    29.99F
OKLAHOMA CITY  CLOUDY    49  45  86 NW25G32   29.87R
DALLAS         CLEAR     59  46  62 W18G28    29.89S
AMARILLO       CLEAR     38  34  85 NW18      30.07S WCI  28
$$




USA.gov is the U.S. government's official web portal to all federal, state and local government web resources and services.